DELTA 1 DEB

Satellite information

Favourite Embed

Satellite Type and Status

DEBRISIN ORBIT

Key statistics

Satellite DELTA 1 DEB at a glance.

Uptime

19030

Days in orbit

Revolutions

≈ 12.4

Per day

Orbit

SSO

Sun Synchronous Orbit

Inclination

101.7

Latest

Satellite identification and parameters

Extended collection of information and parameters for DELTA 1 DEB.

Object identification

Identified? True

Debris? True

Object name: DELTA 1 DEB

International designator: 1973-086CX

Object number (NORAD): 7133

Object ID (CCSDS): 7133

Country: UNITED STATES OF AMERICA (US)

Current information (Y/N): Y

RCS size: SMALL

Orbital parameters

Period: 115.987 minutes

Inclination: 101.6921 deg

SMA: 7878.33 km

Apoapsis: 1528.77 km

Periapsis: 1471.621 km

RAAN: 22.0732 deg

Eccentricy: 0.00362697

Argument of periapsis: 314.2903 deg

Mean anomaly: 203.1538 deg

Mean motion: 12.41513661 rev/day

Mean motion (dot): 0.00000249 rev/day2

B* drag term: 0.0021446205 1/REarth

Two-line elements (TLE)

Creation date: Dec. 11, 2025, 7:14 p.m.

Reference frame: TEME

Reference center: EARTH

Epoch: Dec. 11, 2025, 2:35 p.m. UTC

TLE line 0: 0 DELTA 1 DEB

TLE line 1: 1 07133U 73086CX 25345.60831980 .00000249 00000-0 21446-2 0 9996

TLE line 2: 2 07133 101.6921 22.0732 0036270 314.2903 203.1538 12.41513661357065

Live tracking on map

Real-time ground track for satellite DELTA 1 DEB.

In-orbit conjunctions

A list of the most updated potential collisions computed for object DELTA 1 DEB.

Target Orbit TCA Probability of collision Miss distance Type
COSMOS 1559 LEO 2024-12-07 19:10:19 0.0001909556 338.0 (m) PAYLOAD

Associated space launch

Meteorological satellite using radiometric imaging

DELTA 1 DEB was lifted into orbit during the mission ‘Delta 0300 | NOAA 3’, on board a Delta 0300 space rocket.

The launch took place on Nov. 6, 1973, 5:02 p.m. from Space Launch Complex 2W.

For more information about the launch, click the button.

Launch to space Delta 0300 | NOAA 3
Delta 0300 | NOAA 3

Agency: N/A

Status: Launch Successful

Launch date: Nov. 6, 1973, 5:02 p.m. UTC

Rocket: Delta 0300

Launch pad: Space Launch Complex 2W

Location: Vandenberg SFB, CA, USA

...

Latest news about this satellite

There are no fresh news available about this satellite. Check back as we update our databases every day.


Newsletter sign-up

Weekly statistics, charts and insights to help you stay on top of the space industry.